Regional Weather Roundup
Issued by NWS

Home | Current Version | Previous Version | Text Only | Print | Product List | Glossary Off
Versions: 1 2 3 4 5 6 7 8 9 10 11 12 13 14 15 16 17 18 19 20 21 22 23 24 25 26 27 28 29 30 31 32 33 34 35 36 37 38 39 40 41 42 43 44 45 46 47 48 49 50

000
ASUS44 KMEG 261910
RWRTN
TENNESSEE HOURLY STATE WEATHER ROUNDUP
NATIONAL WEATHER SERVICE MEMPHIS TN
200 PM CDT FRI MAY 26 2017

TNZ002-004-019-021-049-052-054-088>092-262000-
WEST TENNESSEE

CITY           SKY/WX    TMP DP  RH WIND       PRES   REMARKS
MEMPHIS INTL   MOSUNNY   83  65  54 S18G29    29.88F
NWS MEMPHIS      N/A     83 N/A N/A MISG        N/A
JACKSON        SUNNY     86  58  38 S21G30    29.86F
DYERSBURG        N/A    N/A N/A N/A MISG        N/A
COVINGTON      SUNNY     84  63  48 SW20G28   29.85F
UNION CITY     SUNNY     88  57  35 SW17G29   29.80F
BOLIVAR        SUNNY     84  59  42 S12G21    29.88F
PARIS          SUNNY     82  57  42 S17G26    29.83F
HUNTINGDON     SUNNY     84  57  39 S18G24    29.83F
LEXINGTON      SUNNY     84  61  45 MISG      29.87F
SELMER         SUNNY     84  55  37 S13G23    29.91F
SAVANNAH       SUNNY     86  59  39 S15G24    29.91F
$$

TNZ008-025-027-028-033-062-065-066-262000-
NORTH MIDDLE TENNESSEE

CITY           SKY/WX    TMP DP  RH WIND       PRES   REMARKS
NASHVILLE      MOSUNNY   85  58  39 S20       29.92F
PORTLAND       SUNNY     79  64  61 S16       29.89F
CLARKSVILLE    SUNNY     83  58  42 S16       29.86F
SMYRNA         MOSUNNY   83  64  52 S8G20     29.93F
COOKEVILLE     SUNNY     77  63  61 S10       29.94F
GALLATIN       SUNNY     81  64  57 S10       29.93F
CROSSVILLE     SUNNY     74  59  59 VRB6      30.02F
$$

TNZ061-075-076-078-094-096-097-262000-
SOUTH MIDDLE TENNESSEE

CITY           SKY/WX    TMP DP  RH WIND       PRES   REMARKS
FAYETTEVILLE   SUNNY     81  63  54 SW12      29.97F
TULLAHOMA      SUNNY     79  63  57 S12       29.98F
WINCHESTER     SUNNY     82  61  47 S6          N/A
MCMINNVILLE    SUNNY     81  64  57 VRB5      29.97F
COLUMBIA       SUNNY     82  61  47 SW15G24   29.91F
SHELBYVILLE    SUNNY     81  64  57 S14G21    29.94F
$$

TNZ017-018-042-046-047-262000-
NORTHEAST TENNESSEE

CITY           SKY/WX    TMP DP  RH WIND       PRES   REMARKS
TRI CITIES     PTSUNNY   74  53  48 SW17      30.02F
ELIZABETHTON   MOSUNNY   73  54  49 NW13G18   30.02F
$$

TNZ012-013-036-069-073-074-262000-
CENTRAL EAST TENNESSEE

CITY           SKY/WX    TMP DP  RH WIND       PRES   REMARKS
KNOXVILLE      PTSUNNY   76  57  51 SW10      30.01F
OAK RIDGE      PTSUNNY   77  56  48 S6        30.01F
DOWNTOWN KNOXV MOSUNNY   77  59  53 W8        30.01F
GATLINBURG     MOSUNNY   79  54  41 W10       30.01F
MORRISTOWN     MOSUNNY   75  54  46 VRB7      30.01F
JACKSBORO      MOSUNNY   77  57  50 VRB6      30.02F
$$

TNZ083-085-099-262000-
SOUTHEAST TENNESSEE

CITY           SKY/WX    TMP DP  RH WIND       PRES   REMARKS
CHATTANOOGA    PTSUNNY   80  58  46 S9        30.01F
$$

SKY/WX REPORTED AS FAIR MEANS FEW OR NO CLOUDS BELOW
12 THOUSAND FEET.





USA.gov is the U.S. government's official web portal to all federal, state and local government web resources and services.